Location: Huesca
(42.1318°N, 0.4078°W)
Time: 03:10:31
(UTC+01:00)

Explorer 7 - Visible Passes

Search period start: 15 December 2025 00:00
Search period end: 25 December 2025 00:00
Orbit: 435 x 553 km, 50.3° (Epoch: 14 December)

Date Brightness Start Highest point End Pass type
(mag) Time Alt. Az. Time Alt. Az. Time Alt. Az.
15 Dec 7.7 18:49:35 10° W 18:52:47 30° NNW 18:54:20 21° NNE visible
16 Dec 7.7 18:26:00 10° W 18:29:13 31° NNW 18:31:45 14° NE visible
16 Dec 9.3 20:05:44 10° NW 20:06:15 12° NW 20:06:15 12° NW visible
17 Dec 7.6 18:02:23 10° W 18:05:38 31° NNW 18:08:49 10° NE visible
17 Dec 8.6 19:42:09 10° NW 19:43:38 18° NNW 19:43:38 18° NNW visible
18 Dec 8.1 19:18:30 10° NW 19:21:01 21° N 19:21:01 21° N visible
19 Dec 8.0 18:54:52 10° NW 18:57:39 21° N 18:58:24 20° NNE visible
20 Dec 8.0 18:31:11 10° NW 18:33:59 21° N 18:35:48 15° NE visible
20 Dec 9.3 20:09:52 10° NW 20:10:17 13° NW 20:10:17 13° NW visible
21 Dec 8.0 18:07:28 10° NW 18:10:18 21° N 18:13:05 10° NE visible
21 Dec 8.4 19:46:11 10° NW 19:47:43 22° NW 19:47:43 22° NW visible
22 Dec 7.3 19:22:27 10° NW 19:25:12 35° N 19:25:12 35° N visible
23 Dec 7.0 18:58:42 10° NW 19:02:04 39° NNE 19:02:47 34° NE visible
24 Dec 7.0 18:34:56 10° NW 18:38:19 39° NNE 18:40:28 18° E visible
24 Dec 8.9 20:13:34 10° WNW 20:14:59 21° W 20:14:59 21° W visible
